KLM133 EHAM-KATL

Flight info

Callsign KLM133
Flight time N/A
Altitude 32000
Route BERGI L60 PENIL M144 BAGSO DCT ULTAG DCT DOGAL/M081F320 DCT 54N020W 53N030W 52N040W 51N050W DCT ALLRY/N0470F320 N468A TUSKY DCT BOS DCT BAF Q448 PTW J48 MOL DCT FLASK OZZZI2
Aircraft B77W/H-VGDW/C

Departure

Time 2026-04-30 20:06
Airport Amsterdam Airport Schiphol (EHAM)

Arrival

Time N/A
Airport Hartsfield Jackson Atlanta International Airport (KATL)
Time Latitude Longitude Altitude Speed Heading
2026-04-30 19:28 52.31326 4.76654 3 ft 0 kts 124°
2026-04-30 19:30 52.31326 4.76653 3 ft 0 kts 124°
2026-04-30 19:38 52.31326 4.76652 2 ft 0 kts 124°
2026-04-30 19:46 52.31327 4.76652 2 ft 0 kts 124°
2026-04-30 19:47 52.31327 4.76651 2 ft 0 kts 124°
2026-04-30 19:54 52.31327 4.76650 2 ft 0 kts 124°
2026-04-30 19:55 52.31331 4.76641 3 ft 4 kts 121°
2026-04-30 19:56 52.31343 4.76602 4 ft 4 kts 124°
2026-04-30 19:56 52.31359 4.76579 5 ft 4 kts 159°
2026-04-30 19:56 52.31383 4.76575 2 ft 4 kts 205°
2026-04-30 19:56 52.31403 4.76594 6 ft 0 kts 213°
2026-04-30 19:59 52.31401 4.76592 5 ft 2 kts 213°
2026-04-30 19:59 52.31377 4.76567 2 ft 4 kts 213°
2026-04-30 19:59 52.31344 4.76491 2 ft 4 kts 263°
2026-04-30 20:00 52.31354 4.76446 2 ft 4 kts 305°
2026-04-30 20:00 52.31383 4.76418 2 ft 6 kts 339°
2026-04-30 20:00 52.31423 4.76395 2 ft 6 kts 342°
2026-04-30 20:00 52.31464 4.76373 2 ft 6 kts 341°
2026-04-30 20:01 52.31527 4.76280 2 ft 7 kts 296°
2026-04-30 20:01 52.31537 4.76197 2 ft 8 kts 271°
2026-04-30 20:01 52.31536 4.76096 2 ft 11 kts 267°
2026-04-30 20:02 52.31524 4.75766 2 ft 16 kts 267°
2026-04-30 20:02 52.31518 4.75579 2 ft 16 kts 266°
2026-04-30 20:03 52.31503 4.75205 2 ft 16 kts 266°
2026-04-30 20:03 52.31498 4.75018 2 ft 16 kts 267°
2026-04-30 20:03 52.31491 4.74831 2 ft 16 kts 266°
2026-04-30 20:03 52.31495 4.74699 2 ft 10 kts 296°
2026-04-30 20:04 52.31555 4.74661 3 ft 10 kts 359°
2026-04-30 20:04 52.31623 4.74663 5 ft 10 kts
2026-04-30 20:04 52.31666 4.74734 5 ft 9 kts 73°
2026-04-30 20:05 52.31670 4.74798 4 ft 0 kts 87°
2026-04-30 20:05 52.31677 4.75031 -2 ft 44 kts 87°
2026-04-30 20:06 52.31708 4.75922 2 ft 111 kts 86°
2026-04-30 20:06 52.31762 4.77494 4 ft 164 kts 86°
2026-04-30 20:06 52.31834 4.79453 278 ft 180 kts 87°
2026-04-30 20:06 52.31913 4.81538 859 ft 179 kts 88°
2026-04-30 20:07 52.31987 4.83450 1711 ft 170 kts 92°
2026-04-30 20:07 52.32194 4.85408 2092 ft 192 kts 70°
2026-04-30 20:07 52.34969 4.87544 2854 ft 256 kts
2026-04-30 20:08 52.36679 4.86790 3732 ft 258 kts 329°
2026-04-30 20:08 52.37922 4.84734 4401 ft 256 kts 291°
2026-04-30 20:08 52.38420 4.81967 4971 ft 256 kts 278°
2026-04-30 20:08 52.38860 4.79108 5541 ft 260 kts 290°
2026-04-30 20:09 52.39924 4.76694 5975 ft 268 kts 320°
2026-04-30 20:09 52.41385 4.74593 6225 ft 290 kts 317°
2026-04-30 20:09 52.44356 4.69825 7566 ft 303 kts 315°
2026-04-30 20:10 52.47536 4.65329 9011 ft 304 kts 338°
2026-04-30 20:10 52.49520 4.64095 9613 ft 308 kts 342°
2026-04-30 20:10 52.51537 4.62864 10411 ft 310 kts 341°
2026-04-30 20:11 52.55745 4.60203 11164 ft 347 kts 340°
2026-04-30 20:11 52.58076 4.58703 11340 ft 371 kts 340°
2026-04-30 20:11 52.60517 4.57119 11654 ft 390 kts 340°
2026-04-30 20:12 52.65693 4.53738 12989 ft 406 kts 339°
2026-04-30 20:12 52.68172 4.51471 13553 ft 415 kts 320°
2026-04-30 20:12 52.70042 4.47826 14183 ft 417 kts 302°
2026-04-30 20:13 52.71604 4.43753 14765 ft 424 kts 303°
2026-04-30 20:13 52.73272 4.39709 15513 ft 427 kts 304°
2026-04-30 20:13 52.74943 4.35654 16349 ft 426 kts 300°
2026-04-30 20:13 52.76179 4.31199 16915 ft 431 kts 288°
2026-04-30 20:14 52.77094 4.26453 17595 ft 435 kts 285°
2026-04-30 20:14 52.77673 4.23271 18098 ft 437 kts 285°
2026-04-30 20:14 52.78553 4.18455 18833 ft 440 kts 285°
2026-04-30 20:14 52.79459 4.13616 19518 ft 443 kts 286°
2026-04-30 20:15 52.80396 4.08756 20189 ft 445 kts 287°
2026-04-30 20:15 52.81671 4.02283 21072 ft 449 kts 287°
2026-04-30 20:15 52.82331 3.98964 21527 ft 450 kts 287°
2026-04-30 20:15 52.83641 3.92401 22341 ft 455 kts 287°
2026-04-30 20:16 52.84298 3.89099 22714 ft 458 kts 287°
2026-04-30 20:16 52.85299 3.84066 23290 ft 462 kts 287°
2026-04-30 20:16 52.86304 3.78995 23870 ft 466 kts 287°
2026-04-30 20:16 52.87313 3.73883 24377 ft 468 kts 287°
2026-04-30 20:17 52.88322 3.68758 24938 ft 469 kts 287°
2026-04-30 20:17 52.89334 3.63604 25445 ft 471 kts 287°
2026-04-30 20:17 52.90342 3.58452 26061 ft 470 kts 287°
2026-04-30 20:17 52.91352 3.53277 26487 ft 475 kts 286°
2026-04-30 20:18 52.92373 3.48027 26756 ft 482 kts 287°
2026-04-30 20:18 52.93403 3.42715 27210 ft 484 kts 287°
2026-04-30 20:18 52.94434 3.37390 27629 ft 487 kts 287°
2026-04-30 20:18 52.95468 3.32036 28087 ft 489 kts 287°
2026-04-30 20:19 52.96506 3.26653 28505 ft 491 kts 286°
2026-04-30 20:19 52.97548 3.21223 28828 ft 495 kts 287°
2026-04-30 20:19 52.98592 3.15764 29190 ft 498 kts 286°
2026-04-30 20:19 52.99641 3.10249 29395 ft 503 kts 286°
2026-04-30 20:20 53.00668 3.04828 30212 ft 495 kts 286°
2026-04-30 20:20 53.01695 2.99399 30758 ft 492 kts 286°
2026-04-30 20:20 53.02714 2.93992 31269 ft 489 kts 286°
2026-04-30 20:20 53.03730 2.88587 31549 ft 492 kts 285°
2026-04-30 20:21 53.04747 2.83160 31935 ft 490 kts 285°
2026-04-30 20:21 53.05759 2.77750 32278 ft 491 kts 285°
2026-04-30 20:21 53.06769 2.72327 32631 ft 490 kts 285°
2026-04-30 20:21 53.07770 2.66940 33117 ft 487 kts 285°
2026-04-30 20:22 53.08768 2.61567 33508 ft 485 kts 285°
2026-04-30 20:22 53.09757 2.56215 33940 ft 483 kts 285°
2026-04-30 20:22 53.10711 2.50850 34139 ft 485 kts 282°
2026-04-30 20:23 53.11848 2.39749 34308 ft 488 kts 275°
2026-04-30 20:23 53.12701 2.28577 34284 ft 483 kts 275°
2026-04-30 20:24 53.13559 2.17503 34306 ft 481 kts 275°
2026-04-30 20:24 53.14432 2.06461 34290 ft 481 kts 275°
2026-04-30 20:25 53.15737 1.89923 34303 ft 482 kts 275°
2026-04-30 20:26 53.17025 1.73269 34294 ft 484 kts 275°
2026-04-30 20:26 53.18293 1.56550 34304 ft 485 kts 275°
2026-04-30 20:27 53.19949 1.34211 34281 ft 485 kts 274°
2026-04-30 20:28 53.21562 1.11882 34276 ft 484 kts 274°
2026-04-30 20:30 53.23511 0.84070 34272 ft 483 kts 273°
2026-04-30 20:31 53.25764 0.50653 34292 ft 483 kts 272°
2026-04-30 20:32 53.27570 0.22789 34261 ft 482 kts 272°
2026-04-30 20:33 53.28622 0.06097 34259 ft 481 kts 272°